^^
Saratoga-Weather Station Historical Data
Daily Summary for September 16, 2021 Units:  Metric    English   Both
Daily Weekly Monthly Yearly Custom
  High: Low: Average:
Temperature: 22.6 °C 13.7 °C 17.3 °C
Dew Point: 17.5 °C 10.9 °C 13.8 °C
Humidity: 91% 72% 80%
Wind Speed: 19.5km/h 0km/h 6.4km/h
Wind Gust: 29km/h - -
Wind- - West
Pressure: 1019.3 hPa 1010.2 hPa -
Precipitation: 2.3 mm    
Historical Graphs
 
 
Tabular Data for September 16, 2021
Time Temperature Dew Point Pressure Wind Wind Speed Wind Gust Humidity Rainfall Rate (Hourly) solar
00:02 21.9 °C 17.3 °C 1010.2 hPa WSW 4.7 km/h 12.9 km/h 75% 0.0 mm 0 W/m2
00:07 22.3 °C 17.4 °C 1010.5 hPa West 4.7 km/h 12.9 km/h 74% 0.0 mm 0 W/m2
00:12 22.5 °C 17.4 °C 1010.2 hPa WNW 3.2 km/h 11.3 km/h 73% 0.0 mm 0 W/m2
00:17 22.6 °C 17.5 °C 1010.5 hPa West 14.3 km/h 17.7 km/h 73% 0.0 mm 0 W/m2
00:22 22.4 °C 17.5 °C 1010.5 hPa West 11.1 km/h 11.3 km/h 74% 0.0 mm 0 W/m2
00:27 22.3 °C 17.4 °C 1010.5 hPa NW 6.4 km/h 9.7 km/h 74% 0.0 mm 0 W/m2
00:32 22.1 °C 17.2 °C 1010.5 hPa WNW 6.4 km/h 9.7 km/h 74% 0.0 mm 0 W/m2
00:37 21.9 °C 17.3 °C 1010.5 hPa WNW 7.9 km/h 14.5 km/h 75% 0.0 mm 0 W/m2
00:42 21.7 °C 17.3 °C 1010.5 hPa NW 11.1 km/h 11.3 km/h 76% 0.0 mm 0 W/m2
00:47 21.4 °C 17 °C 1010.8 hPa WNW 6.4 km/h 14.5 km/h 76% 0.0 mm 0 W/m2
00:52 21.3 °C 17.1 °C 1010.8 hPa WNW 11.1 km/h 16.1 km/h 77% 0.0 mm 0 W/m2
00:57 21.2 °C 17 °C 1010.8 hPa WNW 11.1 km/h 12.9 km/h 77% 0.0 mm 0 W/m2
01:02 21.1 °C 16.9 °C 1010.8 hPa WNW 6.4 km/h 12.9 km/h 77% 0.0 mm 0 W/m2
01:07 21.1 °C 16.9 °C 1010.8 hPa West 6.4 km/h 19.3 km/h 77% 0.0 mm 0 W/m2
01:12 20.9 °C 16.7 °C 1010.8 hPa West 14.3 km/h 17.7 km/h 77% 0.0 mm 0 W/m2
01:17 20.9 °C 16.7 °C 1010.8 hPa West 13 km/h 12.9 km/h 77% 0.0 mm 0 W/m2
01:22 20.8 °C 16.8 °C 1010.8 hPa WNW 9.7 km/h 17.7 km/h 78% 0.0 mm 0 W/m2
01:27 20.7 °C 16.7 °C 1010.8 hPa SW 7.9 km/h 16.1 km/h 78% 0.0 mm 0 W/m2
01:32 20.5 °C 16.7 °C 1010.8 hPa SW 7.9 km/h 16.1 km/h 79% 0.0 mm 0 W/m2
01:37 20.3 °C 16.5 °C 1011.2 hPa West 13 km/h 16.1 km/h 79% 0.0 mm 0 W/m2
01:42 20.3 °C 16.5 °C 1011.2 hPa WSW 16.3 km/h 19.3 km/h 79% 0.0 mm 0 W/m2
01:47 20.2 °C 16 °C 1011.2 hPa West 14.3 km/h 17.7 km/h 77% 0.0 mm 0 W/m2
01:52 20.2 °C 16 °C 1011.2 hPa NW 14.3 km/h 16.1 km/h 77% 0.0 mm 0 W/m2
01:57 20.1 °C 15.7 °C 1011.2 hPa NW 7.9 km/h 19.3 km/h 76% 0.0 mm 0 W/m2
02:02 20 °C 15.6 °C 1011.2 hPa WNW 13 km/h 14.5 km/h 76% 0.0 mm 0 W/m2
02:07 19.8 °C 15.4 °C 1011.2 hPa WSW 7.9 km/h 17.7 km/h 76% 0.0 mm 0 W/m2
02:12 19.7 °C 15.6 °C 1011.5 hPa WNW 11.1 km/h 19.3 km/h 77% 0.0 mm 0 W/m2
02:17 19.6 °C 15.5 °C 1011.2 hPa West 9.7 km/h 14.5 km/h 77% 0.0 mm 0 W/m2
02:22 19.4 °C 15.3 °C 1011.5 hPa WNW 11.1 km/h 19.3 km/h 77% 0.0 mm 0 W/m2
02:27 19.3 °C 15.2 °C 1011.2 hPa West 9.7 km/h 14.5 km/h 77% 0.0 mm 0 W/m2
02:32 19.2 °C 15.1 °C 1011.2 hPa WSW 11.1 km/h 20.9 km/h 77% 0.0 mm 0 W/m2
02:37 19.1 °C 15 °C 1011.2 hPa WNW 13 km/h 24.1 km/h 77% 0.0 mm 0 W/m2
02:42 19 °C 14.9 °C 1011.5 hPa WSW 16.3 km/h 17.7 km/h 77% 0.0 mm 0 W/m2
02:47 18.8 °C 14.7 °C 1011.5 hPa West 9.7 km/h 19.3 km/h 77% 0.0 mm 0 W/m2
02:52 18.7 °C 14.6 °C 1011.5 hPa West 9.7 km/h 17.7 km/h 77% 0.0 mm 0 W/m2
02:57 18.6 °C 14.5 °C 1011.5 hPa West 16.3 km/h 19.3 km/h 77% 0.0 mm 0 W/m2
03:02 18.4 °C 14.3 °C 1011.5 hPa WNW 7.9 km/h 12.9 km/h 77% 0.0 mm 0 W/m2
03:07 18.3 °C 14.2 °C 1011.5 hPa West 13 km/h 17.7 km/h 77% 0.0 mm 0 W/m2
03:12 18.2 °C 14.1 °C 1011.5 hPa WNW 6.4 km/h 12.9 km/h 77% 0.0 mm 0 W/m2
03:17 18.1 °C 14 °C 1011.5 hPa West 13 km/h 14.5 km/h 77% 0.0 mm 0 W/m2
03:22 18 °C 13.9 °C 1011.5 hPa West 4.7 km/h 11.3 km/h 77% 0.0 mm 0 W/m2
03:27 17.9 °C 13.8 °C 1011.5 hPa West 4.7 km/h 8 km/h 77% 0.0 mm 0 W/m2
03:32 17.8 °C 13.7 °C 1011.5 hPa West 6.4 km/h 12.9 km/h 77% 0.0 mm 0 W/m2
03:37 17.7 °C 13.6 °C 1011.9 hPa West 6.4 km/h 12.9 km/h 77% 0.0 mm 0 W/m2
03:42 17.7 °C 13.4 °C 1011.9 hPa West 11.1 km/h 14.5 km/h 76% 0.0 mm 0 W/m2
03:47 17.7 °C 13.4 °C 1011.9 hPa West 19.5 km/h 19.3 km/h 76% 0.0 mm 0 W/m2
03:52 17.7 °C 13.4 °C 1011.9 hPa NW 7.9 km/h 12.9 km/h 76% 0.0 mm 0 W/m2
03:57 17.6 °C 12.9 °C 1011.9 hPa WNW 11.1 km/h 14.5 km/h 74% 0.0 mm 0 W/m2
04:02 17.6 °C 12.9 °C 1011.9 hPa NW 6.4 km/h 12.9 km/h 74% 0.0 mm 0 W/m2
04:07 17.5 °C 12.8 °C 1011.9 hPa West 11.1 km/h 16.1 km/h 74% 0.0 mm 0 W/m2
04:12 17.4 °C 12.9 °C 1011.9 hPa WNW 3.2 km/h 6.4 km/h 75% 0.0 mm 0 W/m2
04:17 17.3 °C 13 °C 1011.9 hPa WSW 1.4 km/h 4.8 km/h 76% 0.0 mm 0 W/m2
04:22 17.1 °C 13 °C 1011.9 hPa WNW 4.7 km/h 6.4 km/h 77% 0.0 mm 0 W/m2
04:27 16.9 °C 13 °C 1011.9 hPa West 6.4 km/h 11.3 km/h 78% 0.0 mm 0 W/m2
04:32 16.7 °C 12.6 °C 1011.9 hPa West 11.1 km/h 16.1 km/h 77% 0.0 mm 0 W/m2
04:37 16.7 °C 12.4 °C 1011.9 hPa WSW 7.9 km/h 16.1 km/h 76% 0.0 mm 0 W/m2
04:43 16.7 °C 12.4 °C 1011.9 hPa West 4.7 km/h 6.4 km/h 76% 0.0 mm 0 W/m2
04:48 16.6 °C 12.4 °C 1011.9 hPa West 3.2 km/h 16.1 km/h 76% 0.0 mm 0 W/m2
04:53 16.6 °C 12.4 °C 1011.9 hPa West 3.2 km/h 6.4 km/h 76% 0.0 mm 0 W/m2
04:58 16.4 °C 12.2 °C 1012.2 hPa West 1.4 km/h 9.7 km/h 76% 0.0 mm 0 W/m2
05:03 16.3 °C 12.3 °C 1011.9 hPa NW 1.4 km/h 1.6 km/h 77% 0.0 mm 0 W/m2
05:08 16.2 °C 12.4 °C 1012.2 hPa West 3.2 km/h 3.2 km/h 78% 0.0 mm 0 W/m2
05:13 16.1 °C 12.5 °C 1012.2 hPa West 3.2 km/h 11.3 km/h 79% 0.0 mm 0 W/m2
05:18 16 °C 12.4 °C 1012.2 hPa WNW 4.7 km/h 8 km/h 79% 0.0 mm 0 W/m2
05:23 15.9 °C 12.5 °C 1012.2 hPa WSW 1.4 km/h 11.3 km/h 80% 0.0 mm 0 W/m2
05:28 15.8 °C 12.4 °C 1012.2 hPa WSW 3.2 km/h 3.2 km/h 80% 0.0 mm 0 W/m2
05:33 15.7 °C 12.4 °C 1012.2 hPa WNW 3.2 km/h 9.7 km/h 81% 0.0 mm 0 W/m2
05:38 15.6 °C 12.4 °C 1012.2 hPa WNW 1.4 km/h 4.8 km/h 81% 0.0 mm 0 W/m2
05:43 15.5 °C 12.3 °C 1012.2 hPa West 3.2 km/h 3.2 km/h 81% 0.0 mm 0 W/m2
05:48 15.4 °C 12.2 °C 1012.2 hPa Calm   3.2 km/h 81% 0.0 mm 0 W/m2
05:53 15.3 °C 12.1 °C 1012.2 hPa West 3.2 km/h 4.8 km/h 81% 0.0 mm 0 W/m2
05:58 15.2 °C 12.1 °C 1012.2 hPa Calm     82% 0.0 mm 0 W/m2
06:03 15.1 °C 12 °C 1012.2 hPa SE 1.4 km/h 4.8 km/h 82% 0.0 mm 0 W/m2
06:08 15 °C 12 °C 1012.5 hPa Calm   1.6 km/h 82% 0.0 mm 0 W/m2
06:13 14.9 °C 12 °C 1012.5 hPa SW 1.4 km/h 4.8 km/h 83% 0.0 mm 0 W/m2
06:18 14.9 °C 12 °C 1012.5 hPa ENE 3.2 km/h 3.2 km/h 83% 0.0 mm 0 W/m2
06:23 14.8 °C 11.9 °C 1012.5 hPa Calm   3.2 km/h 83% 0.0 mm 0 W/m2
06:28 14.8 °C 12.1 °C 1012.5 hPa Calm   1.6 km/h 84% 0.0 mm 0 W/m2
06:33 14.7 °C 12 °C 1012.5 hPa Calm   1.6 km/h 84% 0.0 mm 0 W/m2
06:38 14.7 °C 12 °C 1012.9 hPa Calm   1.6 km/h 84% 0.0 mm 5 W/m2
06:43 14.8 °C 12.1 °C 1012.9 hPa West 1.4 km/h 3.2 km/h 84% 0.0 mm 7 W/m2
06:48 14.8 °C 12.1 °C 1012.9 hPa Calm   1.6 km/h 84% 0.0 mm 5 W/m2
06:53 14.8 °C 12.1 °C 1012.9 hPa Calm   3.2 km/h 84% 0.0 mm 7 W/m2
06:58 14.9 °C 12.2 °C 1012.9 hPa Calm   3.2 km/h 84% 0.0 mm 9 W/m2
07:03 15 °C 12.3 °C 1012.9 hPa Calm   1.6 km/h 84% 0.0 mm 9 W/m2
07:08 15.1 °C 12.4 °C 1012.9 hPa SW 1.4 km/h 3.2 km/h 84% 0.0 mm 7 W/m2
07:13 15.1 °C 12.4 °C 1012.9 hPa Calm   3.2 km/h 84% 0.0 mm 18 W/m2
07:18 15.2 °C 12.5 °C 1012.9 hPa WNW 4.7 km/h 4.8 km/h 84% 0.0 mm 16 W/m2
07:23 15.3 °C 12.4 °C 1012.9 hPa NNW 1.4 km/h 1.6 km/h 83% 0.0 mm 23 W/m2
07:28 15.3 °C 12.4 °C 1012.9 hPa Calm   1.6 km/h 83% 0.0 mm 19 W/m2
07:33 15.4 °C 12.5 °C 1012.9 hPa South 3.2 km/h 3.2 km/h 83% 0.0 mm 23 W/m2
07:38 15.5 °C 12.6 °C 1012.9 hPa NE 1.4 km/h 6.4 km/h 83% 0.0 mm 26 W/m2
07:43 15.6 °C 12.7 °C 1012.9 hPa NNW 3.2 km/h 6.4 km/h 83% 0.0 mm 26 W/m2
07:48 15.7 °C 12.8 °C 1013.2 hPa NNW 1.4 km/h 4.8 km/h 83% 0.0 mm 32 W/m2
07:53 15.7 °C 12.8 °C 1013.2 hPa Calm   6.4 km/h 83% 0.0 mm 39 W/m2
07:58 15.8 °C 12.9 °C 1013.2 hPa Calm     83% 0.0 mm 44 W/m2
08:03 15.8 °C 12.9 °C 1012.9 hPa Calm   6.4 km/h 83% 0.0 mm 49 W/m2
08:08 15.9 °C 12.8 °C 1012.9 hPa Calm   4.8 km/h 82% 0.0 mm 53 W/m2
08:13 15.9 °C 12.8 °C 1013.2 hPa West 1.4 km/h 6.4 km/h 82% 0.0 mm 67 W/m2
08:18 16.1 °C 13 °C 1012.9 hPa WNW 3.2 km/h 4.8 km/h 82% 0.0 mm 74 W/m2
08:23 16.2 °C 13.1 °C 1012.9 hPa West 4.7 km/h 4.8 km/h 82% 0.0 mm 88 W/m2
08:28 16.2 °C 13.1 °C 1012.9 hPa WNW 1.4 km/h 6.4 km/h 82% 0.0 mm 84 W/m2
08:33 16.3 °C 13.2 °C 1012.9 hPa WSW 4.7 km/h 6.4 km/h 82% 0.0 mm 98 W/m2
08:38 16.3 °C 13.2 °C 1012.9 hPa NNW 4.7 km/h 4.8 km/h 82% 0.0 mm 107 W/m2
08:43 16.4 °C 13.3 °C 1012.9 hPa West 3.2 km/h 4.8 km/h 82% 0.0 mm 123 W/m2
08:48 16.5 °C 13.2 °C 1012.9 hPa WNW 3.2 km/h 6.4 km/h 81% 0.0 mm 123 W/m2
08:53 16.6 °C 13.3 °C 1012.9 hPa Calm   4.8 km/h 81% 0.0 mm 139 W/m2
08:58 16.8 °C 13.5 °C 1012.9 hPa NW 1.4 km/h 4.8 km/h 81% 0.0 mm 134 W/m2
09:03 16.9 °C 13.6 °C 1012.9 hPa WSW 4.7 km/h 6.4 km/h 81% 0.0 mm 125 W/m2
09:08 17 °C 13.5 °C 1012.9 hPa WSW 3.2 km/h 6.4 km/h 80% 0.0 mm 128 W/m2
09:13 17.1 °C 13.6 °C 1012.9 hPa West 3.2 km/h 11.3 km/h 80% 0.0 mm 121 W/m2
09:18 17.1 °C 13.6 °C 1013.2 hPa Calm   8 km/h 80% 0.0 mm 90 W/m2
09:23 17.2 °C 13.7 °C 1013.2 hPa WNW 4.7 km/h 11.3 km/h 80% 0.0 mm 139 W/m2
09:28 17.2 °C 13.7 °C 1013.2 hPa NW 4.7 km/h 11.3 km/h 80% 0.0 mm 155 W/m2
09:33 17.3 °C 13.8 °C 1013.2 hPa ENE 1.4 km/h 4.8 km/h 80% 0.0 mm 107 W/m2
09:38 17.3 °C 13.8 °C 1013.2 hPa WNW 1.4 km/h 9.7 km/h 80% 0.0 mm 130 W/m2
09:43 17.3 °C 13.8 °C 1013.2 hPa West 9.7 km/h 14.5 km/h 80% 0.0 mm 130 W/m2
09:48 17.4 °C 13.9 °C 1013.2 hPa ESE 13 km/h 12.9 km/h 80% 0.0 mm 93 W/m2
09:53 17.4 °C 13.9 °C 1013.2 hPa West 1.4 km/h 6.4 km/h 80% 0.0 mm 97 W/m2
09:58 17.3 °C 14.2 °C 1013.2 hPa WNW 12.9 km/h 12.9 km/h 82% 0.0 mm 155 W/m2
10:03 17.2 °C 14.3 °C 1013.2 hPa ENE 3.2 km/h 6.4 km/h 83% 0.0 mm 176 W/m2
10:08 16.9 °C 14.2 °C 1013.2 hPa ENE 6.4 km/h 11.3 km/h 84% 0.0 mm 162 W/m2
10:13 16.8 °C 14.4 °C 1013.2 hPa Calm   4.8 km/h 86% 0.0 mm 179 W/m2
10:18 16.7 °C 14.3 °C 1013.2 hPa Calm   4.8 km/h 86% 0.0 mm 172 W/m2
10:23 16.7 °C 14.5 °C 1013.2 hPa ESE 1.4 km/h 3.2 km/h 87% 0.0 mm 169 W/m2
10:28 16.8 °C 14.4 °C 1013.5 hPa Calm   3.2 km/h 86% 0.0 mm 163 W/m2
10:33 16.9 °C 14.7 °C 1013.2 hPa SW 6.4 km/h 6.4 km/h 87% 0.0 mm 172 W/m2
10:38 17 °C 14.6 °C 1013.5 hPa ENE 3.2 km/h 6.4 km/h 86% 0.0 mm 186 W/m2
10:43 17.1 °C 14.6 °C 1013.5 hPa WNW 3.2 km/h 6.4 km/h 85% 0.0 mm 218 W/m2
10:48 17.2 °C 14.7 °C 1013.5 hPa West 1.4 km/h 8 km/h 85% 0.0 mm 264 W/m2
10:53 17.3 °C 14.8 °C 1013.5 hPa NNW 3.2 km/h 11.3 km/h 85% 0.0 mm 315 W/m2
10:58 17.5 °C 14.9 °C 1013.5 hPa North 4.7 km/h 4.8 km/h 85% 0.0 mm 306 W/m2
11:03 17.7 °C 14.8 °C 1013.5 hPa WNW 6.4 km/h 11.3 km/h 83% 0.0 mm 218 W/m2
11:08 17.7 °C 14.8 °C 1013.5 hPa Calm   17.7 km/h 83% 0.0 mm 188 W/m2
11:13 17.7 °C 15 °C 1013.5 hPa WNW 7.9 km/h 12.9 km/h 84% 0.0 mm 211 W/m2
11:18 17.7 °C 14.8 °C 1013.5 hPa WSW 4.7 km/h 17.7 km/h 83% 0.0 mm 121 W/m2
11:23 17.7 °C 14.8 °C 1013.5 hPa NW 1.4 km/h 6.4 km/h 83% 0.0 mm 218 W/m2
11:28 17.7 °C 14.8 °C 1013.5 hPa ESE 1.4 km/h 16.1 km/h 83% 0.0 mm 299 W/m2
11:33 17.7 °C 14.8 °C 1013.5 hPa NW 3.2 km/h 6.4 km/h 83% 0.0 mm 244 W/m2
11:38 17.9 °C 14.8 °C 1013.5 hPa West 1.4 km/h 8 km/h 82% 0.0 mm 313 W/m2
11:43 18.1 °C 14.8 °C 1013.5 hPa NW 3.2 km/h 11.3 km/h 81% 0.0 mm 443 W/m2
11:48 18.3 °C 14.8 °C 1013.5 hPa West 6.4 km/h 12.9 km/h 80% 0.0 mm 315 W/m2
11:53 18.4 °C 14.9 °C 1013.5 hPa NNW 1.4 km/h 19.3 km/h 80% 0.0 mm 343 W/m2
11:58 18.5 °C 15 °C 1013.5 hPa WSW 17.7 km/h 17.7 km/h 80% 0.0 mm 339 W/m2
12:03 18.6 °C 14.9 °C 1013.5 hPa West 9.7 km/h 11.3 km/h 79% 0.0 mm 359 W/m2
12:08 18.8 °C 15.1 °C 1013.5 hPa WNW 3.2 km/h 8 km/h 79% 0.0 mm 469 W/m2
12:13 19.3 °C 15.2 °C 1013.5 hPa West 1.4 km/h 16.1 km/h 77% 0.0 mm 417 W/m2
12:18 19.2 °C 14.9 °C 1013.5 hPa WSW 7.9 km/h 12.9 km/h 76% 0.0 mm 390 W/m2
12:23 19.2 °C 15.1 °C 1013.5 hPa NW 4.7 km/h 16.1 km/h 77% 0.0 mm 348 W/m2
12:28 19.2 °C 15.1 °C 1013.5 hPa NW 13 km/h 12.9 km/h 77% 0.0 mm 385 W/m2
12:33 19.3 °C 15 °C 1013.2 hPa WNW 17.7 km/h 17.7 km/h 76% 0.0 mm 425 W/m2
12:38 19.2 °C 14.7 °C 1013.5 hPa North 3.2 km/h 19.3 km/h 75% 0.0 mm 434 W/m2
12:43 19.2 °C 14.7 °C 1013.2 hPa NW 1.4 km/h 11.3 km/h 75% 0.0 mm 628 W/m2
12:48 19.4 °C 14.9 °C 1013.5 hPa NW 3.2 km/h 14.5 km/h 75% 0.0 mm 401 W/m2
12:53 19.7 °C 14.9 °C 1013.2 hPa SW 3.2 km/h 16.1 km/h 74% 0.0 mm 418 W/m2
12:58 19.8 °C 15.2 °C 1013.2 hPa Calm   4.8 km/h 75% 0.0 mm 329 W/m2
13:03 19.9 °C 15.1 °C 1013.2 hPa NNW 4.7 km/h 16.1 km/h 74% 0.0 mm 436 W/m2
13:08 19.8 °C 14.8 °C 1013.2 hPa SW 7.9 km/h 12.9 km/h 73% 0.0 mm 464 W/m2
13:13 19.7 °C 14.7 °C 1013.2 hPa West 3.2 km/h 16.1 km/h 73% 0.0 mm 469 W/m2
13:18 19.6 °C 14.6 °C 1013.5 hPa West 4.7 km/h 12.9 km/h 73% 0.0 mm 359 W/m2
13:23 19.6 °C 14.6 °C 1013.2 hPa West 1.4 km/h 11.3 km/h 73% 0.0 mm 404 W/m2
13:28 19.6 °C 14.6 °C 1013.2 hPa NW 4.7 km/h 12.9 km/h 73% 0.0 mm 401 W/m2
13:33 19.9 °C 14.9 °C 1013.2 hPa WNW 3.2 km/h 8 km/h 73% 0.0 mm 476 W/m2
13:38 19.8 °C 14.8 °C 1013.2 hPa SSW 6.4 km/h 6.4 km/h 73% 0.0 mm 97 W/m2
13:43 19.3 °C 15.2 °C 1013.5 hPa West 9.7 km/h 17.7 km/h 77% 0.0 mm 137 W/m2
13:48 18.8 °C 15.3 °C 1013.5 hPa West 4.7 km/h 12.9 km/h 80% 0.0 mm 309 W/m2
13:53 18.5 °C 15.4 °C 1013.5 hPa SW 3.2 km/h 9.7 km/h 82% 0.0 mm 364 W/m2
13:58 18.4 °C 15.3 °C 1013.5 hPa WNW 1.4 km/h 11.3 km/h 82% 0.0 mm 455 W/m2
14:03 18.7 °C 15.6 °C 1013.2 hPa West 6.4 km/h 9.7 km/h 82% 0.0 mm 461 W/m2
14:08 19 °C 15.9 °C 1013.5 hPa WNW 9.7 km/h 14.5 km/h 82% 0.0 mm 499 W/m2
14:13 19.4 °C 15.5 °C 1013.5 hPa West 9.7 km/h 19.3 km/h 78% 0.0 mm 501 W/m2
14:18 19.6 °C 15.5 °C 1013.5 hPa WNW 3.2 km/h 17.7 km/h 77% 0.0 mm 476 W/m2
14:23 19.8 °C 15.2 °C 1013.2 hPa NNW 6.4 km/h 20.9 km/h 75% 0.0 mm 388 W/m2
14:28 19.8 °C 15 °C 1013.5 hPa WNW 4.7 km/h 17.7 km/h 74% 0.0 mm 116 W/m2
14:33 19.4 °C 15.1 °C 1013.5 hPa WNW 17.7 km/h 29 km/h 76% 0.0 mm 56 W/m2
14:38 18.5 °C 15 °C 1013.5 hPa NW 4.7 km/h 19.3 km/h 80% 0.2 mm 130 W/m2
14:44 17.9 °C 15 °C 1013.5 hPa WNW 11.1 km/h 16.1 km/h 83% 0.2 mm 223 W/m2
14:49 17.7 °C 15.3 °C 1013.5 hPa WNW 6.4 km/h 19.3 km/h 86% 0.2 mm 359 W/m2
14:54 17.8 °C 15.6 °C 1013.2 hPa North 4.7 km/h 14.5 km/h 87% 0.2 mm 397 W/m2
14:59 18.1 °C 15.7 °C 1013.2 hPa West 6.4 km/h 17.7 km/h 86% 0.2 mm 432 W/m2
15:04 18.4 °C 15.8 °C 1013.2 hPa SSW 3.2 km/h 11.3 km/h 85% 0.2 mm 489 W/m2
15:09 19.1 °C 16.1 °C 1013.2 hPa WSW 14.3 km/h 17.7 km/h 83% 0.2 mm 714 W/m2
15:14 19.7 °C 16 °C 1013.2 hPa West 13 km/h 16.1 km/h 79% 0.2 mm 870 W/m2
15:19 19.8 °C 15.4 °C 1013.2 hPa WSW 13 km/h 20.9 km/h 76% 0.2 mm 278 W/m2
15:24 19.7 °C 15.3 °C 1013.2 hPa WNW 3.2 km/h 19.3 km/h 76% 0.2 mm 376 W/m2
15:29 19.7 °C 15.1 °C 1013.2 hPa West 9.7 km/h 24.1 km/h 75% 0.2 mm 269 W/m2
15:34 19.7 °C 15.3 °C 1013.2 hPa West 14.3 km/h 16.1 km/h 76% 0.2 mm 190 W/m2
15:39 19.7 °C 15.1 °C 1013.2 hPa West 9.7 km/h 12.9 km/h 75% 0.0 mm 276 W/m2
15:44 19.7 °C 14.9 °C 1013.2 hPa West 16.3 km/h 16.1 km/h 74% 0.0 mm 204 W/m2
15:49 19.7 °C 14.9 °C 1013.2 hPa West 13 km/h 20.9 km/h 74% 0.0 mm 77 W/m2
15:54 19.3 °C 15.4 °C 1013.5 hPa West 16.3 km/h 22.5 km/h 78% 0.5 mm 42 W/m2
15:59 18.4 °C 15.3 °C 1013.5 hPa West 11.1 km/h 17.7 km/h 82% 0.8 mm 51 W/m2
16:04 17.8 °C 15.1 °C 1013.5 hPa West 9.7 km/h 9.7 km/h 84% 1.0 mm 160 W/m2
16:09 17.7 °C 15.5 °C 1013.5 hPa West 4.7 km/h 17.7 km/h 87% 1.0 mm 162 W/m2
16:14 17.6 °C 15.6 °C 1013.5 hPa West 11.1 km/h 16.1 km/h 88% 1.0 mm 49 W/m2
16:19 17.3 °C 15.1 °C 1013.9 hPa WNW 13 km/h 19.3 km/h 87% 1.8 mm 49 W/m2
16:24 16.4 °C 14.2 °C 1014.2 hPa NW 17.7 km/h 22.5 km/h 87% 2.0 mm 84 W/m2
16:29 16.1 °C 14.3 °C 1014.2 hPa WNW 4.7 km/h 20.9 km/h 89% 2.3 mm 95 W/m2
16:34 15.9 °C 14.3 °C 1014.2 hPa West 6.4 km/h 16.1 km/h 90% 2.3 mm 93 W/m2
16:39 15.9 °C 14.4 °C 1014.2 hPa WSW 13 km/h 17.7 km/h 91% 2.3 mm 204 W/m2
16:44 15.9 °C 14.4 °C 1014.2 hPa West 4.7 km/h 17.7 km/h 91% 2.3 mm 209 W/m2
16:49 16.2 °C 14.7 °C 1013.9 hPa WNW 14.3 km/h 14.5 km/h 91% 2.3 mm 278 W/m2
16:54 16.3 °C 14.7 °C 1014.2 hPa NW 7.9 km/h 20.9 km/h 90% 1.8 mm 255 W/m2
16:59 16.4 °C 14.8 °C 1014.2 hPa West 9.7 km/h 19.3 km/h 90% 1.5 mm 155 W/m2
17:04 16.4 °C 14.6 °C 1014.2 hPa NW 9.7 km/h 20.9 km/h 89% 1.3 mm 171 W/m2
17:09 16.5 °C 14.7 °C 1014.6 hPa West 9.7 km/h 20.9 km/h 89% 1.3 mm 197 W/m2
17:14 16.5 °C 14.7 °C 1014.6 hPa NNW 14.3 km/h 14.5 km/h 89% 1.3 mm 227 W/m2
17:19 16.6 °C 14.8 °C 1014.6 hPa WNW 6.4 km/h 17.7 km/h 89% 0.5 mm 144 W/m2
17:24 16.6 °C 14.6 °C 1014.6 hPa WSW 13 km/h 17.7 km/h 88% 0.2 mm 121 W/m2
17:29 16.7 °C 14.7 °C 1014.6 hPa NW 4.7 km/h 12.9 km/h 88% 0.0 mm 183 W/m2
17:34 16.8 °C 14.6 °C 1014.6 hPa WNW 13 km/h 17.7 km/h 87% 0.0 mm 151 W/m2
17:39 16.8 °C 14.6 °C 1014.6 hPa WNW 13 km/h 17.7 km/h 87% 0.0 mm 195 W/m2
17:44 16.9 °C 14.7 °C 1014.6 hPa West 3.2 km/h 11.3 km/h 87% 0.0 mm 262 W/m2
17:49 17.1 °C 14.7 °C 1014.6 hPa WNW 4.7 km/h 12.9 km/h 86% 0.0 mm 343 W/m2
17:54 17.2 °C 14.7 °C 1014.6 hPa WSW 14.3 km/h 14.5 km/h 85% 0.0 mm 130 W/m2
17:59 17.1 °C 14.7 °C 1014.9 hPa West 4.7 km/h 9.7 km/h 86% 0.0 mm 204 W/m2
18:04 17.2 °C 14.8 °C 1014.9 hPa WNW 3.2 km/h 14.5 km/h 86% 0.0 mm 185 W/m2
18:09 17.3 °C 14.6 °C 1014.9 hPa West 4.7 km/h 12.9 km/h 84% 0.0 mm 237 W/m2
18:14 17.4 °C 14.7 °C 1014.9 hPa WNW 13 km/h 12.9 km/h 84% 0.0 mm 142 W/m2
18:19 17.4 °C 14.3 °C 1014.9 hPa West 6.4 km/h 12.9 km/h 82% 0.0 mm 100 W/m2
18:24 17.3 °C 14.2 °C 1015.2 hPa NW 4.7 km/h 14.5 km/h 82% 0.0 mm 69 W/m2
18:29 17.2 °C 14.1 °C 1015.2 hPa WNW 11.1 km/h 14.5 km/h 82% 0.0 mm 91 W/m2
18:34 17.2 °C 14.3 °C 1015.2 hPa WSW 4.7 km/h 12.9 km/h 83% 0.0 mm 62 W/m2
18:39 17.2 °C 14.3 °C 1015.2 hPa West 16.3 km/h 16.1 km/h 83% 0.0 mm 97 W/m2
18:44 17.2 °C 14.1 °C 1015.2 hPa NW 9.7 km/h 14.5 km/h 82% 0.0 mm 134 W/m2
18:49 17.3 °C 13.8 °C 1015.2 hPa WSW 7.9 km/h 11.3 km/h 80% 0.0 mm 98 W/m2
18:54 17.4 °C 13.5 °C 1015.6 hPa West 11.1 km/h 16.1 km/h 78% 0.0 mm 84 W/m2
18:59 17.4 °C 12.7 °C 1015.6 hPa West 13 km/h 24.1 km/h 74% 0.0 mm 93 W/m2
19:04 17.3 °C 12.4 °C 1015.6 hPa WSW 11.1 km/h 20.9 km/h 73% 0.0 mm 86 W/m2
19:09 17.3 °C 12.4 °C 1015.6 hPa West 9.7 km/h 14.5 km/h 73% 0.0 mm 97 W/m2
19:14 17.2 °C 12.5 °C 1015.6 hPa NW 16.3 km/h 16.1 km/h 74% 0.0 mm 98 W/m2
19:19 17.2 °C 12.5 °C 1015.6 hPa West 13 km/h 14.5 km/h 74% 0.0 mm 74 W/m2
19:24 17.1 °C 12.4 °C 1015.6 hPa West 11.1 km/h 20.9 km/h 74% 0.0 mm 56 W/m2
19:29 17.1 °C 12.4 °C 1015.6 hPa WNW 4.7 km/h 17.7 km/h 74% 0.0 mm 40 W/m2
19:34 17 °C 12.5 °C 1015.6 hPa WSW 7.9 km/h 20.9 km/h 75% 0.0 mm 26 W/m2
19:39 17 °C 12.3 °C 1015.9 hPa West 4.7 km/h 12.9 km/h 74% 0.0 mm 25 W/m2
19:44 16.9 °C 12.4 °C 1015.9 hPa WSW 7.9 km/h 20.9 km/h 75% 0.0 mm 26 W/m2
19:49 16.8 °C 12.5 °C 1015.9 hPa WSW 3.2 km/h 9.7 km/h 76% 0.0 mm 32 W/m2
19:54 16.7 °C 12.4 °C 1015.9 hPa WNW 3.2 km/h 12.9 km/h 76% 0.0 mm 26 W/m2
19:59 16.6 °C 12.6 °C 1015.9 hPa West 4.7 km/h 12.9 km/h 77% 0.0 mm 21 W/m2
20:04 16.5 °C 12.5 °C 1016.3 hPa West 6.4 km/h 11.3 km/h 77% 0.0 mm 18 W/m2
20:09 16.4 °C 12.6 °C 1016.3 hPa WSW 6.4 km/h 12.9 km/h 78% 0.0 mm 14 W/m2
20:14 16.4 °C 12.4 °C 1016.3 hPa WSW 7.9 km/h 12.9 km/h 77% 0.0 mm 9 W/m2
20:19 16.4 °C 11.8 °C 1016.6 hPa West 11.1 km/h 17.7 km/h 74% 0.0 mm 9 W/m2
20:24 16.6 °C 11.7 °C 1016.3 hPa NW 13 km/h 14.5 km/h 73% 0.0 mm 12 W/m2
20:29 16.5 °C 11.6 °C 1016.6 hPa NW 6.4 km/h 12.9 km/h 73% 0.0 mm 5 W/m2
20:34 16.4 °C 11.5 °C 1016.6 hPa West 6.4 km/h 12.9 km/h 73% 0.0 mm 0 W/m2
20:39 16.3 °C 11.5 °C 1016.6 hPa West 6.4 km/h 11.3 km/h 73% 0.0 mm 0 W/m2
20:44 16.3 °C 11.2 °C 1016.9 hPa West 3.2 km/h 11.3 km/h 72% 0.0 mm 0 W/m2
20:49 16.2 °C 11.1 °C 1016.9 hPa West 9.7 km/h 12.9 km/h 72% 0.0 mm 0 W/m2
20:54 16.2 °C 11.1 °C 1016.9 hPa WSW 3.2 km/h 8 km/h 72% 0.0 mm 0 W/m2
20:59 16.1 °C 11.1 °C 1016.9 hPa West 4.7 km/h 14.5 km/h 72% 0.0 mm 0 W/m2
21:04 15.9 °C 10.9 °C 1017.3 hPa WNW 11.1 km/h 12.9 km/h 72% 0.0 mm 0 W/m2
21:09 16 °C 11 °C 1017.6 hPa WNW 1.4 km/h 14.5 km/h 72% 0.0 mm 0 W/m2
21:14 16 °C 11 °C 1017.6 hPa SW 9.7 km/h 11.3 km/h 72% 0.0 mm 0 W/m2
21:19 15.9 °C 11.1 °C 1017.6 hPa WSW 7.9 km/h 8 km/h 73% 0.0 mm 0 W/m2
21:24 15.9 °C 11.1 °C 1017.6 hPa NW 6.4 km/h 11.3 km/h 73% 0.0 mm 0 W/m2
21:29 15.8 °C 11 °C 1018.0 hPa NNW 6.4 km/h 19.3 km/h 73% 0.0 mm 0 W/m2
21:34 15.8 °C 11 °C 1018.0 hPa NW 9.7 km/h 11.3 km/h 73% 0.0 mm 0 W/m2
21:39 15.7 °C 11.1 °C 1018.0 hPa WNW 13 km/h 16.1 km/h 74% 0.0 mm 0 W/m2
21:44 15.7 °C 11.3 °C 1018.3 hPa WNW 13 km/h 12.9 km/h 75% 0.0 mm 0 W/m2
21:49 15.6 °C 11.4 °C 1018.3 hPa West 16.3 km/h 17.7 km/h 76% 0.0 mm 0 W/m2
21:54 15.3 °C 11.5 °C 1018.6 hPa West 6.4 km/h 16.1 km/h 78% 0.0 mm 0 W/m2
21:59 15.1 °C 11.7 °C 1018.6 hPa WNW 4.7 km/h 6.4 km/h 80% 0.0 mm 0 W/m2
22:04 15 °C 11.8 °C 1018.6 hPa SW 6.4 km/h 8 km/h 81% 0.0 mm 0 W/m2
22:09 14.8 °C 11.8 °C 1019.0 hPa NNW 13 km/h 16.1 km/h 82% 0.0 mm 0 W/m2
22:14 14.7 °C 11.7 °C 1019.0 hPa NNW 6.4 km/h 16.1 km/h 82% 0.0 mm 0 W/m2
22:19 14.6 °C 11.9 °C 1019.0 hPa NW 4.7 km/h 14.5 km/h 84% 0.0 mm 0 W/m2
22:24 14.4 °C 11.9 °C 1019.0 hPa WSW 6.4 km/h 9.7 km/h 85% 0.0 mm 0 W/m2
22:29 14.3 °C 12 °C 1019.0 hPa WSW 4.7 km/h 9.7 km/h 86% 0.0 mm 0 W/m2
22:34 14.2 °C 12.1 °C 1019.0 hPa WSW 3.2 km/h 9.7 km/h 87% 0.0 mm 0 W/m2
22:39 14.1 °C 12 °C 1019.0 hPa West 4.7 km/h 6.4 km/h 87% 0.0 mm 0 W/m2
22:44 14.1 °C 12.1 °C 1019.0 hPa WNW 1.4 km/h 4.8 km/h 88% 0.0 mm 0 W/m2
22:49 14 °C 12 °C 1019.0 hPa WNW 6.4 km/h 6.4 km/h 88% 0.0 mm 0 W/m2
22:54 14 °C 12 °C 1019.0 hPa West 4.7 km/h 4.8 km/h 88% 0.0 mm 0 W/m2
22:59 13.9 °C 11.9 °C 1019.0 hPa Calm   3.2 km/h 88% 0.0 mm 0 W/m2
23:04 13.9 °C 11.9 °C 1019.3 hPa West 1.4 km/h 3.2 km/h 88% 0.0 mm 0 W/m2
23:09 13.8 °C 12 °C 1019.3 hPa WSW 3.2 km/h 6.4 km/h 89% 0.0 mm 0 W/m2
23:14 13.8 °C 12 °C 1019.3 hPa WNW 4.7 km/h 6.4 km/h 89% 0.0 mm 0 W/m2
23:19 13.7 °C 11.9 °C 1019.3 hPa SW 4.7 km/h 6.4 km/h 89% 0.0 mm 0 W/m2
23:24 13.7 °C 11.9 °C 1019.3 hPa WNW 1.4 km/h 4.8 km/h 89% 0.0 mm 0 W/m2
23:30 13.7 °C 11.9 °C 1019.3 hPa Calm   4.8 km/h 89% 0.0 mm 0 W/m2
23:35 13.7 °C 11.9 °C 1019.3 hPa West 3.2 km/h 4.8 km/h 89% 0.0 mm 0 W/m2
23:40 13.7 °C 11.7 °C 1019.3 hPa WSW 7.9 km/h 9.7 km/h 88% 0.0 mm 0 W/m2
23:45 13.7 °C 11.4 °C 1019.3 hPa WSW 4.7 km/h 12.9 km/h 86% 0.0 mm 0 W/m2
23:50 13.7 °C 11.4 °C 1019.3 hPa WNW 3.2 km/h 8 km/h 86% 0.0 mm 0 W/m2
23:55 13.7 °C 11.4 °C 1019.0 hPa West 4.7 km/h 6.4 km/h 86% 0.0 mm 0 W/m2
Juneau County Weather
Compliments of Weather Underground - 4 mb